Tracking 25707 objects as of 30-Jun-2022
HD Live streaming from Space Station
objects crossing your sky now

SHIJIAN-15 (SJ-15)

Track SHIJIAN-15 (SJ-15) now!
10-day predictions
SHIJIAN-15 (SJ-15) is classified as:


NORAD ID: 39210
Int'l Code: 2013-037C
Perigee: 668.9 km
Apogee: 680.4 km
Inclination: 98.0 °
Period: 98.1 minutes
Semi major axis: 7045 km
RCS: Unknown
Launch date: July 19, 2013
Source: People's Republic of China (PRC)
Launch site: Taiyaun Space Center, China (TSC)

SHIJIAN 15 is a technology satellite, precise mission unknown at present.
aabbcc
Your satellite tracking list
Your tracking list is empty




NASA's NSSDC Master Catalog

Two Line Element Set (TLE):
1 39210U 13037C   22180.56090504  .00000217  00000-0  46312-4 0  9991
2 39210  98.0415 177.7695 0008125  73.5726 286.6371 14.67981756481563
Source of the keplerian elements: AFSPC